| time (UTC) | temp F | wind direction | speed MPH | gust MPH | rain 1hr in | rain 24hr in | rain mn in | humidity % | barometer mb |
| 20260508234003 | 42 | 50 | 2.0 | 4.0 | 0.00 | 0.00 | 0.00 | 34 | 1025.7 |
| 20260508233503 | 42 | 43 | 2.0 | 5.0 | 0.00 | 0.00 | 0.00 | 34 | 1025.6 |
| 20260508233003 | 43 | 44 | 2.0 | 5.0 | 0.00 | 0.00 | 0.00 | 35 | 1025.6 |
| 20260508232503 | 43 | 54 | 2.0 | 4.0 | 0.00 | 0.00 | 0.00 | 35 | 1025.7 |
| 20260508232003 | 43 | 54 | 1.0 | 4.0 | 0.00 | 0.00 | 0.00 | 35 | 1025.7 |
| 20260508231503 | 44 | 53 | 1.0 | 6.0 | 0.00 | 0.00 | 0.00 | 34 | 1025.8 |
| 20260508231003 | 44 | 63 | 2.0 | 6.0 | 0.00 | 0.00 | 0.00 | 34 | 1025.8 |
| 20260508230713 | 44 | 62 | 2.0 | 6.0 | 0.00 | 0.00 | 0.00 | 34 | 1025.9 |
| 20260508230214 | 44 | 73 | 1.0 | 6.0 | 0.00 | 0.00 | 0.00 | 34 | 1025.8 |
| 20260508225503 | 44 | 82 | 1.0 | 4.0 | 0.00 | 0.00 | 0.00 | 37 | 1025.8 |
| 20260508225003 | 44 | 80 | 2.0 | 6.0 | 0.00 | 0.00 | 0.00 | 37 | 1026.0 |
| 20260508224504 | 45 | 75 | 2.0 | 6.0 | 0.00 | 0.00 | 0.00 | 36 | 1025.8 |
| 20260508224003 | 45 | 79 | 2.0 | 6.0 | 0.00 | 0.00 | 0.00 | 36 | 1025.7 |
| 20260508223503 | 45 | 87 | 2.0 | 6.0 | 0.00 | 0.00 | 0.00 | 36 | 1025.8 |
| 20260508223003 | 45 | 80 | 2.0 | 5.0 | 0.00 | 0.00 | 0.00 | 37 | 1025.7 |
| 20260508222503 | 45 | 66 | 2.0 | 5.0 | 0.00 | 0.00 | 0.00 | 37 | 1025.7 |
| 20260508222003 | 45 | 76 | 1.0 | 4.0 | 0.00 | 0.00 | 0.00 | 37 | 1025.6 |
| 20260508221503 | 45 | 71 | 1.0 | 5.0 | 0.00 | 0.00 | 0.00 | 37 | 1025.9 |
| 20260508221003 | 45 | 51 | 1.0 | 5.0 | 0.00 | 0.00 | 0.00 | 37 | 1025.6 |
| 20260508220503 | 45 | 32 | 1.0 | 3.0 | 0.00 | 0.00 | 0.00 | 38 | 1025.7 |
| 20260508220004 | 45 | 36 | 1.0 | 4.0 | 0.00 | 0.00 | 0.00 | 39 | 1025.7 |
| 20260508215713 | 45 | 30 | 2.0 | 4.0 | 0.00 | 0.00 | 0.00 | 40 | 1025.6 |
| 20260508215003 | 46 | 34 | 2.0 | 4.0 | 0.00 | 0.00 | 0.00 | 40 | 1025.6 |
| 20260508214712 | 46 | 31 | 2.0 | 4.0 | 0.00 | 0.00 | 0.00 | 40 | 1025.7 |
| 20260508214003 | 46 | 30 | 1.0 | 3.0 | 0.00 | 0.00 | 0.00 | 40 | 1025.9 |
| 20260508213503 | 46 | 72 | 0.0 | 4.0 | 0.00 | 0.00 | 0.00 | 39 | 1025.8 |
| 20260508213003 | 46 | 73 | 1.0 | 4.0 | 0.00 | 0.00 | 0.00 | 39 | 1025.8 |
| 20260508212503 | 47 | 55 | 1.0 | 3.0 | 0.00 | 0.00 | 0.00 | 39 | 1025.8 |
| 20260508212003 | 47 | 98 | 0.0 | 2.0 | 0.00 | 0.00 | 0.00 | 38 | 1025.6 |
| 20260508211712 | 48 | 180 | 0.0 | 2.0 | 0.00 | 0.00 | 0.00 | 37 | 1025.7 |
| 20260508211003 | 48 | 96 | 1.0 | 4.0 | 0.00 | 0.00 | 0.00 | 36 | 1025.5 |
| 20260508210503 | 48 | 67 | 2.0 | 6.0 | 0.00 | 0.00 | 0.00 | 36 | 1025.5 |
| 20260508210003 | 49 | 80 | 2.0 | 6.0 | 0.00 | 0.00 | 0.00 | 36 | 1025.5 |
| 20260508205503 | 49 | 136 | 2.0 | 4.0 | 0.00 | 0.00 | 0.00 | 35 | 1025.4 |
| 20260508205003 | 49 | 150 | 2.0 | 5.0 | 0.00 | 0.00 | 0.00 | 35 | 1025.2 |
| 20260508204503 | 49 | 123 | 2.0 | 5.0 | 0.00 | 0.00 | 0.00 | 35 | 1025.2 |
| 20260508204213 | 49 | 125 | 3.0 | 5.0 | 0.00 | 0.00 | 0.00 | 35 | 1025.1 |
| 20260508203714 | 49 | 157 | 2.0 | 5.0 | 0.00 | 0.00 | 0.00 | 35 | 1025.0 |
| 20260508203213 | 50 | 190 | 2.0 | 6.0 | 0.00 | 0.00 | 0.00 | 35 | 1025.0 |
| 20260508202503 | 50 | 166 | 3.0 | 7.0 | 0.00 | 0.00 | 0.00 | 34 | 1025.0 |
| 20260508202003 | 51 | 137 | 3.0 | 7.0 | 0.00 | 0.00 | 0.00 | 33 | 1025.0 |
| 20260508201503 | 51 | 126 | 3.0 | 7.0 | 0.00 | 0.00 | 0.00 | 33 | 1024.9 |
| 20260508201004 | 51 | 108 | 2.0 | 6.0 | 0.00 | 0.00 | 0.00 | 34 | 1024.8 |
| 20260508200503 | 51 | 86 | 2.0 | 5.0 | 0.00 | 0.00 | 0.00 | 34 | 1024.6 |
| 20260508200003 | 51 | 86 | 3.0 | 9.0 | 0.00 | 0.00 | 0.00 | 33 | 1024.6 |
| 20260508195503 | 51 | 87 | 3.0 | 9.0 | 0.00 | 0.00 | 0.00 | 33 | 1024.6 |
| 20260508195003 | 52 | 88 | 3.0 | 9.0 | 0.00 | 0.00 | 0.00 | 32 | 1024.5 |
| 20260508194503 | 52 | 86 | 3.0 | 6.0 | 0.00 | 0.00 | 0.00 | 32 | 1024.3 |
| 20260508194003 | 52 | 90 | 3.0 | 7.0 | 0.00 | 0.00 | 0.00 | 32 | 1024.4 |
| 20260508193503 | 53 | 89 | 3.0 | 7.0 | 0.00 | 0.00 | 0.00 | 31 | 1024.4 |
| 20260508193003 | 53 | 88 | 4.0 | 7.0 | 0.00 | 0.00 | 0.00 | 32 | 1024.2 |
| 20260508192503 | 53 | 81 | 4.0 | 7.0 | 0.00 | 0.00 | 0.00 | 31 | 1024.2 |
| 20260508192213 | 53 | 58 | 2.0 | 6.0 | 0.00 | 0.00 | 0.00 | 32 | 1024.2 |
| 20260508191503 | 53 | 57 | 1.0 | 3.0 | 0.00 | 0.00 | 0.00 | 32 | 1024.2 |
| 20260508191003 | 54 | 78 | 1.0 | 4.0 | 0.00 | 0.00 | 0.00 | 31 | 1024.0 |
| 20260508190503 | 54 | 99 | 1.0 | 4.0 | 0.00 | 0.00 | 0.00 | 30 | 1023.8 |
| 20260508190003 | 54 | 103 | 1.0 | 4.0 | 0.00 | 0.00 | 0.00 | 30 | 1023.9 |
| 20260508185503 | 55 | 101 | 2.0 | 4.0 | 0.00 | 0.00 | 0.00 | 30 | 1023.9 |
| 20260508185003 | 55 | 87 | 2.0 | 4.0 | 0.00 | 0.00 | 0.00 | 29 | 1023.9 |
| 20260508184713 | 55 | 77 | 2.0 | 6.0 | 0.00 | 0.00 | 0.00 | 29 | 1024.0 |
| 20260508184003 | 56 | 104 | 2.0 | 6.0 | 0.00 | 0.00 | 0.00 | 29 | 1023.8 |
| 20260508183503 | 56 | 97 | 3.0 | 6.0 | 0.00 | 0.00 | 0.00 | 28 | 1023.7 |
| 20260508183003 | 56 | 95 | 4.0 | 9.0 | 0.00 | 0.00 | 0.00 | 28 | 1023.6 |
| 20260508182503 | 57 | 94 | 4.0 | 10.0 | 0.00 | 0.00 | 0.00 | 28 | 1023.6 |
| 20260508182003 | 57 | 96 | 4.0 | 10.0 | 0.00 | 0.00 | 0.00 | 27 | 1023.6 |
| 20260508181503 | 57 | 94 | 4.0 | 8.0 | 0.00 | 0.00 | 0.00 | 27 | 1023.4 |
| 20260508181003 | 57 | 94 | 4.0 | 9.0 | 0.00 | 0.00 | 0.00 | 27 | 1023.7 |
| 20260508180713 | 58 | 87 | 4.0 | 10.0 | 0.00 | 0.00 | 0.00 | 27 | 1023.5 |
| 20260508180003 | 58 | 85 | 4.0 | 10.0 | 0.00 | 0.00 | 0.00 | 26 | 1023.4 |
| 20260508175503 | 58 | 81 | 4.0 | 9.0 | 0.00 | 0.00 | 0.00 | 26 | 1023.3 |
| 20260508175004 | 58 | 72 | 5.0 | 9.0 | 0.00 | 0.00 | 0.00 | 25 | 1023.4 |
| 20260508174503 | 58 | 93 | 4.0 | 11.0 | 0.00 | 0.00 | 0.00 | 25 | 1023.2 |
| 20260508174004 | 59 | 116 | 4.0 | 11.0 | 0.00 | 0.00 | 0.00 | 25 | 1023.4 |
| 20260508173503 | 59 | 126 | 3.0 | 7.0 | 0.00 | 0.00 | 0.00 | 25 | 1023.2 |
| 20260508173004 | 59 | 110 | 3.0 | 10.0 | 0.00 | 0.00 | 0.00 | 25 | 1023.3 |
| 20260508172503 | 59 | 92 | 4.0 | 10.0 | 0.00 | 0.00 | 0.00 | 25 | 1023.3 |
| 20260508172003 | 59 | 93 | 5.0 | 10.0 | 0.00 | 0.00 | 0.00 | 24 | 1023.1 |
| 20260508171503 | 59 | 104 | 5.0 | 10.0 | 0.00 | 0.00 | 0.00 | 24 | 1023.2 |
| 20260508171003 | 60 | 120 | 4.0 | 9.0 | 0.00 | 0.00 | 0.00 | 25 | 1023.1 |
| 20260508170503 | 60 | 119 | 4.0 | 10.0 | 0.00 | 0.00 | 0.00 | 24 | 1023.0 |
| 20260508170003 | 60 | 111 | 4.0 | 10.0 | 0.00 | 0.00 | 0.00 | 24 | 1023.0 |
| 20260508165503 | 60 | 118 | 4.0 | 9.0 | 0.00 | 0.00 | 0.00 | 24 | 1023.1 |
| 20260508165214 | 60 | 121 | 4.0 | 9.0 | 0.00 | 0.00 | 0.00 | 24 | 1023.1 |
| 20260508164503 | 60 | 120 | 5.0 | 9.0 | 0.00 | 0.00 | 0.00 | 23 | 1022.9 |
| 20260508164003 | 60 | 124 | 4.0 | 10.0 | 0.00 | 0.00 | 0.00 | 24 | 1022.9 |
| 20260508163503 | 60 | 118 | 5.0 | 11.0 | 0.00 | 0.00 | 0.00 | 24 | 1023.0 |
| 20260508163003 | 61 | 112 | 5.0 | 11.0 | 0.00 | 0.00 | 0.00 | 24 | 1022.9 |
| 20260508162504 | 61 | 100 | 4.0 | 11.0 | 0.00 | 0.00 | 0.00 | 23 | 1022.9 |
| 20260508162003 | 61 | 109 | 4.0 | 11.0 | 0.00 | 0.00 | 0.00 | 24 | 1022.8 |
| 20260508161504 | 61 | 105 | 5.0 | 12.0 | 0.00 | 0.00 | 0.00 | 24 | 1023.0 |
| 20260508161003 | 61 | 95 | 5.0 | 12.0 | 0.00 | 0.00 | 0.00 | 24 | 1022.8 |
| 20260508160503 | 61 | 101 | 5.0 | 14.0 | 0.00 | 0.00 | 0.00 | 24 | 1022.8 |
| 20260508160003 | 61 | 106 | 4.0 | 14.0 | 0.00 | 0.00 | 0.00 | 23 | 1022.8 |
| 20260508155503 | 62 | 113 | 4.0 | 8.0 | 0.00 | 0.00 | 0.00 | 25 | 1022.9 |
| 20260508155003 | 62 | 132 | 4.0 | 11.0 | 0.00 | 0.00 | 0.00 | 24 | 1022.8 |
| 20260508154503 | 62 | 144 | 5.0 | 11.0 | 0.00 | 0.00 | 0.00 | 23 | 1023.0 |
| 20260508154003 | 62 | 174 | 5.0 | 11.0 | 0.00 | 0.00 | 0.00 | 25 | 1022.7 |
| 20260508153503 | 62 | 179 | 4.0 | 11.0 | 0.00 | 0.00 | 0.00 | 23 | 1022.9 |
| 20260508153003 | 62 | 183 | 4.0 | 7.0 | 0.00 | 0.00 | 0.00 | 24 | 1023.0 |
| 20260508152503 | 62 | 180 | 4.0 | 9.0 | 0.00 | 0.00 | 0.00 | 24 | 1022.8 |
| 20260508152003 | 61 | 179 | 5.0 | 9.0 | 0.00 | 0.00 | 0.00 | 24 | 1022.9 |
| 20260508151714 | 61 | 185 | 5.0 | 9.0 | 0.00 | 0.00 | 0.00 | 24 | 1023.0 |
| 20260508151003 | 61 | 192 | 4.0 | 10.0 | 0.00 | 0.00 | 0.00 | 25 | 1023.1 |
| 20260508150503 | 61 | 176 | 5.0 | 10.0 | 0.00 | 0.00 | 0.00 | 24 | 1023.0 |
| 20260508150004 | 61 | 168 | 6.0 | 12.0 | 0.00 | 0.00 | 0.00 | 23 | 1023.0 |
| 20260508145503 | 62 | 162 | 4.0 | 12.0 | 0.00 | 0.00 | 0.00 | 24 | 1023.1 |
| 20260508145003 | 62 | 170 | 3.0 | 8.0 | 0.00 | 0.00 | 0.00 | 24 | 1022.9 |
| 20260508144503 | 62 | 177 | 3.0 | 8.0 | 0.00 | 0.00 | 0.00 | 24 | 1023.1 |
| 20260508144003 | 62 | 166 | 5.0 | 12.0 | 0.00 | 0.00 | 0.00 | 24 | 1023.3 |
| 20260508143503 | 62 | 158 | 5.0 | 12.0 | 0.00 | 0.00 | 0.00 | 23 | 1023.2 |
| 20260508143003 | 62 | 170 | 4.0 | 8.0 | 0.00 | 0.00 | 0.00 | 22 | 1023.3 |
| 20260508142503 | 62 | 172 | 3.0 | 8.0 | 0.00 | 0.00 | 0.00 | 23 | 1023.4 |
| 20260508142213 | 62 | 155 | 3.0 | 9.0 | 0.00 | 0.00 | 0.00 | 23 | 1023.4 |
| 20260508141503 | 61 | 64 | 4.0 | 12.0 | 0.00 | 0.00 | 0.00 | 23 | 1023.2 |
| 20260508141003 | 62 | 106 | 4.0 | 12.0 | 0.00 | 0.00 | 0.00 | 24 | 1023.4 |
| 20260508140714 | 62 | 126 | 4.0 | 8.0 | 0.00 | 0.00 | 0.00 | 23 | 1023.3 |
| 20260508140213 | 62 | 175 | 3.0 | 7.0 | 0.00 | 0.00 | 0.00 | 23 | 1023.2 |
| 20260508135503 | 62 | 153 | 4.0 | 11.0 | 0.00 | 0.00 | 0.00 | 23 | 1023.2 |
| 20260508135003 | 62 | 158 | 4.0 | 11.0 | 0.00 | 0.00 | 0.00 | 23 | 1023.3 |
| 20260508134503 | 61 | 144 | 4.0 | 12.0 | 0.00 | 0.00 | 0.00 | 23 | 1023.4 |
| 20260508134212 | 61 | 154 | 5.0 | 12.0 | 0.00 | 0.00 | 0.00 | 22 | 1023.4 |
| 20260508133503 | 61 | 139 | 3.0 | 10.0 | 0.00 | 0.00 | 0.00 | 22 | 1023.5 |
| 20260508133003 | 61 | 124 | 4.0 | 13.0 | 0.00 | 0.00 | 0.00 | 22 | 1023.6 |
| 20260508132503 | 60 | 141 | 4.0 | 13.0 | 0.00 | 0.00 | 0.00 | 23 | 1023.6 |
| 20260508132003 | 61 | 175 | 4.0 | 8.0 | 0.00 | 0.00 | 0.00 | 23 | 1023.6 |
| 20260508131503 | 61 | 157 | 4.0 | 9.0 | 0.00 | 0.00 | 0.00 | 22 | 1023.6 |
| 20260508131212 | 61 | 118 | 4.0 | 19.0 | 0.00 | 0.00 | 0.00 | 23 | 1023.7 |
| 20260508130503 | 60 | 58 | 5.0 | 19.0 | 0.00 | 0.00 | 0.00 | 24 | 1023.6 |
| 20260508130003 | 60 | 47 | 4.0 | 9.0 | 0.00 | 0.00 | 0.00 | 23 | 1023.8 |
| 20260508125503 | 61 | 60 | 4.0 | 9.0 | 0.00 | 0.00 | 0.00 | 23 | 1023.8 |
| 20260508125214 | 61 | 103 | 4.0 | 11.0 | 0.00 | 0.00 | 0.00 | 24 | 1023.9 |
| 20260508124713 | 61 | 145 | 3.0 | 11.0 | 0.00 | 0.00 | 0.00 | 24 | 1023.9 |
| 20260508124003 | 61 | 173 | 3.0 | 7.0 | 0.00 | 0.00 | 0.00 | 22 | 1023.6 |
| 20260508123503 | 61 | 161 | 4.0 | 11.0 | 0.00 | 0.00 | 0.00 | 22 | 1023.9 |
| 20260508123003 | 60 | 140 | 5.0 | 11.0 | 0.00 | 0.00 | 0.00 | 23 | 1023.7 |
| 20260508122503 | 61 | 131 | 4.0 | 11.0 | 0.00 | 0.00 | 0.00 | 24 | 1023.8 |
| 20260508122003 | 61 | 185 | 4.0 | 9.0 | 0.00 | 0.00 | 0.00 | 23 | 1023.8 |
| 20260508121503 | 60 | 168 | 5.0 | 12.0 | 0.00 | 0.00 | 0.00 | 25 | 1023.8 |
| 20260508121003 | 60 | 126 | 4.0 | 12.0 | 0.00 | 0.00 | 0.00 | 24 | 1023.9 |
| 20260508120503 | 60 | 131 | 3.0 | 9.0 | 0.00 | 0.00 | 0.00 | 24 | 1023.8 |
| 20260508120003 | 60 | 173 | 5.0 | 12.0 | 0.00 | 0.00 | 0.00 | 24 | 1024.0 |
| 20260508115503 | 59 | 161 | 5.0 | 12.0 | 0.00 | 0.00 | 0.00 | 23 | 1023.9 |
| 20260508115003 | 60 | 114 | 3.0 | 9.0 | 0.00 | 0.00 | 0.00 | 24 | 1023.9 |
| 20260508114713 | 59 | 86 | 4.0 | 14.0 | 0.00 | 0.00 | 0.00 | 25 | 1023.8 |
| 20260508114003 | 59 | 100 | 4.0 | 14.0 | 0.00 | 0.00 | 0.00 | 25 | 1024.0 |
| 20260508113503 | 60 | 104 | 4.0 | 13.0 | 0.00 | 0.00 | 0.00 | 25 | 1024.0 |
| 20260508113004 | 60 | 79 | 4.0 | 13.0 | 0.00 | 0.00 | 0.00 | 24 | 1023.9 |
| 20260508112503 | 59 | 39 | 4.0 | 15.0 | 0.00 | 0.00 | 0.00 | 26 | 1024.1 |
| 20260508112003 | 59 | 62 | 5.0 | 15.0 | 0.00 | 0.00 | 0.00 | 26 | 1023.9 |
| 20260508111713 | 59 | 94 | 6.0 | 15.0 | 0.00 | 0.00 | 0.00 | 25 | 1023.9 |
| 20260508111003 | 59 | 137 | 5.0 | 13.0 | 0.00 | 0.00 | 0.00 | 26 | 1023.9 |
| 20260508110503 | 60 | 142 | 4.0 | 10.0 | 0.00 | 0.00 | 0.00 | 25 | 1024.0 |
| 20260508110003 | 60 | 166 | 5.0 | 10.0 | 0.00 | 0.00 | 0.00 | 26 | 1023.8 |
| 20260508105712 | 59 | 182 | 5.0 | 10.0 | 0.00 | 0.00 | 0.00 | 26 | 1024.0 |
| 20260508105003 | 59 | 83 | 4.0 | 9.0 | 0.00 | 0.00 | 0.00 | 27 | 1023.8 |
| 20260508104503 | 58 | 70 | 4.0 | 13.0 | 0.00 | 0.00 | 0.00 | 28 | 1024.0 |
| 20260508104003 | 58 | 83 | 4.0 | 13.0 | 0.00 | 0.00 | 0.00 | 26 | 1024.0 |
| 20260508103503 | 58 | 98 | 4.0 | 10.0 | 0.00 | 0.00 | 0.00 | 27 | 1023.9 |
| 20260508103003 | 59 | 117 | 4.0 | 10.0 | 0.00 | 0.00 | 0.00 | 26 | 1024.1 |
| 20260508102503 | 59 | 172 | 4.0 | 13.0 | 0.00 | 0.00 | 0.00 | 26 | 1024.0 |
| 20260508102003 | 59 | 160 | 5.0 | 13.0 | 0.00 | 0.00 | 0.00 | 26 | 1023.7 |
| 20260508101503 | 58 | 138 | 5.0 | 11.0 | 0.00 | 0.00 | 0.00 | 27 | 1023.9 |
| 20260508101003 | 59 | 156 | 4.0 | 12.0 | 0.00 | 0.00 | 0.00 | 26 | 1023.9 |
| 20260508100714 | 58 | 148 | 4.0 | 12.0 | 0.00 | 0.00 | 0.00 | 27 | 1023.9 |
| 20260508100003 | 58 | 110 | 4.0 | 11.0 | 0.00 | 0.00 | 0.00 | 28 | 1024.0 |
| 20260508095503 | 58 | 109 | 5.0 | 11.0 | 0.00 | 0.00 | 0.00 | 27 | 1023.9 |
| 20260508095003 | 58 | 106 | 5.0 | 15.0 | 0.00 | 0.00 | 0.00 | 29 | 1024.0 |
| 20260508094503 | 57 | 100 | 5.0 | 15.0 | 0.00 | 0.00 | 0.00 | 28 | 1024.1 |
| 20260508094003 | 57 | 138 | 5.0 | 11.0 | 0.00 | 0.00 | 0.00 | 28 | 1024.0 |
| 20260508093503 | 57 | 132 | 4.0 | 12.0 | 0.00 | 0.00 | 0.00 | 28 | 1024.0 |
| 20260508093004 | 57 | 119 | 4.0 | 12.0 | 0.00 | 0.00 | 0.00 | 29 | 1023.9 |
| 20260508092503 | 57 | 137 | 5.0 | 13.0 | 0.00 | 0.00 | 0.00 | 29 | 1024.1 |
| 20260508092003 | 57 | 117 | 5.0 | 13.0 | 0.00 | 0.00 | 0.00 | 30 | 1024.1 |
| 20260508091503 | 57 | 115 | 5.0 | 11.0 | 0.00 | 0.00 | 0.00 | 31 | 1023.9 |
| 20260508091003 | 57 | 159 | 4.0 | 12.0 | 0.00 | 0.00 | 0.00 | 31 | 1023.9 |
| 20260508090503 | 56 | 173 | 5.0 | 12.0 | 0.00 | 0.00 | 0.00 | 31 | 1024.0 |
| 20260508090213 | 56 | 170 | 5.0 | 12.0 | 0.00 | 0.00 | 0.00 | 31 | 1024.1 |
| 20260508085503 | 56 | 172 | 5.0 | 10.0 | 0.00 | 0.00 | 0.00 | 32 | 1023.9 |
| 20260508085003 | 56 | 153 | 6.0 | 12.0 | 0.00 | 0.00 | 0.00 | 32 | 1024.0 |
| 20260508084503 | 56 | 136 | 6.0 | 12.0 | 0.00 | 0.00 | 0.00 | 33 | 1024.0 |
| 20260508084003 | 55 | 112 | 4.0 | 12.0 | 0.00 | 0.00 | 0.00 | 36 | 1024.1 |
| 20260508083503 | 55 | 83 | 4.0 | 9.0 | 0.00 | 0.00 | 0.00 | 36 | 1024.1 |
| 20260508083212 | 55 | 110 | 4.0 | 10.0 | 0.00 | 0.00 | 0.00 | 38 | 1024.0 |
| 20260508082713 | 55 | 136 | 6.0 | 12.0 | 0.00 | 0.00 | 0.00 | 38 | 1023.9 |
| 20260508082003 | 54 | 134 | 5.0 | 11.0 | 0.00 | 0.00 | 0.00 | 38 | 1024.2 |
| 20260508081713 | 54 | 134 | 4.0 | 9.0 | 0.00 | 0.00 | 0.00 | 39 | 1024.0 |
| 20260508081212 | 54 | 101 | 4.0 | 11.0 | 0.00 | 0.00 | 0.00 | 40 | 1024.1 |
| 20260508080713 | 53 | 88 | 5.0 | 11.0 | 0.00 | 0.00 | 0.00 | 41 | 1024.0 |
| 20260508080003 | 53 | 128 | 4.0 | 10.0 | 0.00 | 0.00 | 0.00 | 41 | 1024.1 |
| 20260508075713 | 53 | 113 | 4.0 | 9.0 | 0.00 | 0.00 | 0.00 | 41 | 1024.0 |
| 20260508075212 | 53 | 116 | 4.0 | 9.0 | 0.00 | 0.00 | 0.00 | 41 | 1024.2 |
| 20260508074503 | 53 | 105 | 5.0 | 11.0 | 0.00 | 0.00 | 0.00 | 43 | 1024.1 |
| 20260508074003 | 52 | 82 | 6.0 | 13.0 | 0.00 | 0.00 | 0.00 | 45 | 1023.9 |
| 20260508073713 | 52 | 91 | 6.0 | 13.0 | 0.00 | 0.00 | 0.00 | 45 | 1024.0 |
| 20260508073214 | 52 | 105 | 6.0 | 17.0 | 0.00 | 0.00 | 0.00 | 44 | 1024.0 |
| 20260508072503 | 51 | 116 | 6.0 | 17.0 | 0.00 | 0.00 | 0.00 | 45 | 1024.1 |
| 20260508072003 | 52 | 116 | 4.0 | 11.0 | 0.00 | 0.00 | 0.00 | 45 | 1024.0 |
| 20260508071503 | 51 | 119 | 5.0 | 11.0 | 0.00 | 0.00 | 0.00 | 47 | 1024.0 |
| 20260508071214 | 51 | 114 | 6.0 | 14.0 | 0.00 | 0.00 | 0.00 | 47 | 1023.9 |
| 20260508070503 | 51 | 121 | 6.0 | 14.0 | 0.00 | 0.00 | 0.00 | 49 | 1023.8 |
| 20260508070003 | 51 | 124 | 5.0 | 11.0 | 0.00 | 0.00 | 0.00 | 49 | 1023.9 |
| 20260508065713 | 51 | 129 | 4.0 | 10.0 | 0.00 | 0.00 | 0.00 | 48 | 1023.7 |
| 20260508065003 | 50 | 129 | 4.0 | 8.0 | 0.00 | 0.00 | 0.00 | 49 | 1023.6 |
| 20260508064503 | 50 | 117 | 4.0 | 7.0 | 0.00 | 0.00 | 0.00 | 51 | 1023.5 |
| 20260508064003 | 49 | 117 | 4.0 | 11.0 | 0.00 | 0.00 | 0.00 | 50 | 1023.6 |
| 20260508063503 | 49 | 105 | 5.0 | 11.0 | 0.00 | 0.00 | 0.00 | 51 | 1023.5 |
| 20260508063003 | 49 | 104 | 5.0 | 11.0 | 0.00 | 0.00 | 0.00 | 51 | 1023.6 |
| 20260508062504 | 48 | 116 | 5.0 | 11.0 | 0.00 | 0.00 | 0.00 | 51 | 1023.5 |
| 20260508062003 | 48 | 112 | 4.0 | 9.0 | 0.00 | 0.00 | 0.00 | 51 | 1023.2 |
| 20260508061503 | 49 | 119 | 3.0 | 9.0 | 0.00 | 0.00 | 0.00 | 51 | 1023.2 |
| 20260508061003 | 48 | 111 | 3.0 | 9.0 | 0.00 | 0.00 | 0.00 | 51 | 1023.2 |
| 20260508060503 | 48 | 105 | 3.0 | 6.0 | 0.00 | 0.00 | 0.00 | 51 | 1023.0 |
| 20260508060003 | 48 | 117 | 3.0 | 8.0 | 0.00 | 0.00 | 0.00 | 53 | 1023.0 |
| 20260508055713 | 47 | 108 | 3.0 | 8.0 | 0.00 | 0.00 | 0.00 | 53 | 1023.1 |
| 20260508055214 | 47 | 99 | 3.0 | 7.0 | 0.00 | 0.00 | 0.00 | 54 | 1023.0 |
| 20260508054503 | 47 | 86 | 3.0 | 7.0 | 0.00 | 0.00 | 0.00 | 55 | 1023.0 |
| 20260508054213 | 46 | 89 | 3.0 | 6.0 | 0.00 | 0.00 | 0.00 | 56 | 1023.0 |
| 20260508053503 | 46 | 87 | 3.0 | 6.0 | 0.00 | 0.00 | 0.00 | 57 | 1022.9 |
| 20260508053003 | 45 | 88 | 3.0 | 4.0 | 0.00 | 0.00 | 0.00 | 59 | 1022.9 |
| 20260508052503 | 44 | 89 | 3.0 | 4.0 | 0.00 | 0.00 | 0.00 | 60 | 1022.9 |
| 20260508052003 | 43 | 88 | 2.0 | 5.0 | 0.00 | 0.00 | 0.00 | 61 | 1022.9 |
| 20260508051503 | 42 | 76 | 2.0 | 5.0 | 0.00 | 0.00 | 0.00 | 63 | 1022.9 |
| 20260508051003 | 41 | 60 | 1.0 | 4.0 | 0.00 | 0.00 | 0.00 | 65 | 1022.8 |
| 20260508050503 | 40 | 67 | 1.0 | 3.0 | 0.00 | 0.00 | 0.00 | 68 | 1022.7 |
| 20260508050004 | 40 | 65 | 1.0 | 3.0 | 0.00 | 0.00 | 0.00 | 68 | 1022.6 |
| 20260508045503 | 38 | 45 | 1.0 | 2.0 | 0.00 | 0.00 | 0.00 | 70 | 1022.7 |
| 20260508045003 | 37 | 39 | 1.0 | 2.0 | 0.00 | 0.00 | 0.00 | 72 | 1022.5 |
| 20260508044504 | 36 | 36 | 1.0 | 3.0 | 0.00 | 0.00 | 0.00 | 74 | 1022.7 |
| 20260508044213 | 36 | 32 | 1.0 | 3.0 | 0.00 | 0.00 | 0.00 | 75 | 1022.4 |
| 20260508043503 | 34 | 30 | 1.0 | 2.0 | 0.00 | 0.00 | 0.00 | 77 | 1022.4 |
| 20260508043003 | 33 | 27 | 1.0 | 2.0 | 0.00 | 0.00 | 0.00 | 78 | 1022.5 |
| 20260508042503 | 33 | 28 | 1.0 | 2.0 | 0.00 | 0.00 | 0.00 | 79 | 1022.4 |
| 20260508042003 | 32 | 31 | 1.0 | 3.0 | 0.00 | 0.00 | 0.00 | 80 | 1022.4 |
| 20260508041504 | 32 | 35 | 1.0 | 3.0 | 0.00 | 0.00 | 0.00 | 81 | 1022.4 |
| 20260508041003 | 31 | 37 | 2.0 | 3.0 | 0.00 | 0.00 | 0.00 | 80 | 1022.5 |
| 20260508040503 | 31 | 34 | 2.0 | 3.0 | 0.00 | 0.00 | 0.00 | 80 | 1022.1 |
| 20260508040003 | 31 | 32 | 2.0 | 3.0 | 0.00 | 0.00 | 0.00 | 80 | 1022.4 |
| 20260508035504 | 31 | 29 | 2.0 | 3.0 | 0.00 | 0.00 | 0.00 | 81 | 1022.2 |
| 20260508035213 | 31 | 27 | 2.0 | 3.0 | 0.00 | 0.00 | 0.00 | 80 | 1022.2 |
| 20260508034503 | 31 | 26 | 2.0 | 3.0 | 0.00 | 0.00 | 0.00 | 80 | 1022.3 |
| 20260508034003 | 31 | 21 | 2.0 | 3.0 | 0.00 | 0.00 | 0.00 | 81 | 1022.0 |
| 20260508033503 | 31 | 26 | 1.0 | 3.0 | 0.00 | 0.00 | 0.00 | 82 | 1022.1 |
| 20260508033003 | 30 | 43 | 1.0 | 2.0 | 0.00 | 0.00 | 0.00 | 84 | 1022.2 |
| 20260508032503 | 29 | 56 | 0.0 | 2.0 | 0.00 | 0.00 | 0.00 | 90 | 1022.1 |
| 20260508032003 | 29 | 52 | 1.0 | 3.0 | 0.00 | 0.00 | 0.00 | 85 | 1022.1 |
| 20260508031714 | 29 | 47 | 2.0 | 3.0 | 0.00 | 0.00 | 0.00 | 84 | 1021.9 |
| 20260508031003 | 29 | 39 | 2.0 | 3.0 | 0.00 | 0.00 | 0.00 | 83 | 1022.1 |
| 20260508030503 | 29 | 39 | 2.0 | 3.0 | 0.00 | 0.00 | 0.00 | 83 | 1022.0 |
| 20260508030003 | 30 | 32 | 2.0 | 3.0 | 0.00 | 0.00 | 0.00 | 82 | 1022.1 |
| 20260508025504 | 30 | 28 | 2.0 | 3.0 | 0.00 | 0.00 | 0.00 | 82 | 1022.0 |
| 20260508025003 | 30 | 26 | 2.0 | 3.0 | 0.00 | 0.00 | 0.00 | 82 | 1021.9 |
| 20260508024504 | 30 | 29 | 2.0 | 3.0 | 0.00 | 0.00 | 0.00 | 82 | 1021.8 |
| 20260508024214 | 30 | 32 | 1.0 | 3.0 | 0.00 | 0.00 | 0.00 | 83 | 1021.9 |
| 20260508023503 | 30 | 36 | 1.0 | 2.0 | 0.00 | 0.00 | 0.00 | 83 | 1022.0 |
| 20260508023003 | 30 | 37 | 1.0 | 2.0 | 0.00 | 0.00 | 0.00 | 83 | 1021.7 |
| 20260508022503 | 30 | 42 | 1.0 | 2.0 | 0.00 | 0.00 | 0.00 | 81 | 1021.7 |
| 20260508022003 | 30 | 44 | 0.0 | 2.0 | 0.00 | 0.00 | 0.00 | 82 | 1021.8 |
| 20260508021503 | 29 | 28 | 1.0 | 2.0 | 0.00 | 0.00 | 0.00 | 87 | 1021.6 |
| 20260508021003 | 31 | 34 | 1.0 | 3.0 | 0.00 | 0.00 | 0.00 | 84 | 1021.7 |
| 20260508020503 | 30 | 44 | 1.0 | 3.0 | 0.00 | 0.00 | 0.00 | 84 | 1021.8 |
| 20260508020003 | 30 | 36 | 1.0 | 2.0 | 0.00 | 0.00 | 0.00 | 84 | 1021.6 |
| 20260508015503 | 30 | 40 | 1.0 | 2.0 | 0.00 | 0.00 | 0.00 | 83 | 1021.6 |
| 20260508015003 | 31 | 48 | 2.0 | 2.0 | 0.00 | 0.00 | 0.00 | 81 | 1021.4 |
| 20260508014504 | 31 | 58 | 1.0 | 2.0 | 0.00 | 0.00 | 0.00 | 81 | 1021.3 |
| 20260508014003 | 30 | 44 | 0.0 | 2.0 | 0.00 | 0.00 | 0.00 | 85 | 1021.3 |
| 20260508013503 | 30 | 40 | 0.0 | 2.0 | 0.00 | 0.00 | 0.00 | 88 | 1021.5 |
| 20260508013214 | 30 | 39 | 0.0 | 2.0 | 0.00 | 0.00 | 0.00 | 87 | 1021.6 |
| 20260508012503 | 30 | 41 | 1.0 | 2.0 | 0.00 | 0.00 | 0.00 | 83 | 1021.4 |
| 20260508012003 | 30 | 43 | 1.0 | 2.0 | 0.00 | 0.00 | 0.00 | 81 | 1021.4 |
| 20260508011503 | 31 | 44 | 1.0 | 2.0 | 0.00 | 0.00 | 0.00 | 79 | 1021.3 |
| 20260508011003 | 31 | 40 | 0.0 | 2.0 | 0.00 | 0.00 | 0.00 | 83 | 1021.1 |
| 20260508010713 | 31 | 41 | 0.0 | 2.0 | 0.00 | 0.00 | 0.00 | 84 | 1021.3 |
| 20260508010003 | 32 | 37 | 1.0 | 3.0 | 0.00 | 0.00 | 0.00 | 79 | 1021.1 |
| 20260508005713 | 32 | 35 | 1.0 | 3.0 | 0.00 | 0.00 | 0.00 | 79 | 1020.9 |
| 20260508005003 | 32 | 38 | 2.0 | 3.0 | 0.00 | 0.00 | 0.00 | 81 | 1020.9 |
| 20260508004503 | 31 | 34 | 1.0 | 3.0 | 0.00 | 0.00 | 0.00 | 82 | 1020.9 |
| 20260508004003 | 31 | 32 | 1.0 | 3.0 | 0.00 | 0.00 | 0.00 | 80 | 1021.0 |
| 20260508003713 | 31 | 33 | 1.0 | 3.0 | 0.00 | 0.00 | 0.00 | 80 | 1020.8 |
| 20260508003214 | 32 | 43 | 1.0 | 2.0 | 0.00 | 0.00 | 0.00 | 80 | 1020.9 |
| 20260508002503 | 33 | 29 | 1.0 | 3.0 | 0.00 | 0.00 | 0.00 | 78 | 1020.8 |
| 20260508002003 | 33 | 32 | 1.0 | 3.0 | 0.00 | 0.00 | 0.00 | 78 | 1020.9 |
| 20260508001503 | 33 | 17 | 1.0 | 3.0 | 0.00 | 0.00 | 0.00 | 73 | 1020.8 |
| 20260508001003 | 33 | 115 | 0.0 | 3.0 | 0.00 | 0.00 | 0.00 | 75 | 1020.8 |
| 20260508000503 | 33 | 234 | 1.0 | 3.0 | 0.00 | 0.00 | 0.00 | 75 | 1020.8 |
| 20260508000003 | 32 | 106 | 1.0 | 3.0 | 0.00 | 0.00 | 0.00 | 77 | 1020.8 |
| 20260507235503 | 32 | 77 | 1.0 | 3.0 | 0.00 | 0.00 | 0.00 | 77 | 1020.7 |
| 20260507235003 | 33 | 55 | 1.0 | 2.0 | 0.00 | 0.00 | 0.00 | 76 | 1020.6 |
| 20260507234504 | 32 | 46 | 0.0 | 1.0 | 0.00 | 0.00 | 0.00 | 81 | 1020.5 |